Regional Weather Roundup
Issued by NWS Green Bay, WI

Home | Current Version | Previous Version | Text Only | Print | Product List | Glossary On
Versions: 1 2 3 4 5 6 7 8 9 10 11 12 13 14 15 16 17 18 19 20 21 22 23 24 25 26 27 28 29 30 31 32 33 34 35 36 37 38 39 40 41 42 43 44 45 46 47 48 49 50
000
ASUS43 KGRB 210701
RWRGRB

NORTH-CENTRAL AND NORTHEAST WISCONSIN REGIONAL WEATHER ROUNDUP
NATIONAL WEATHER SERVICE GREEN BAY WI
200 AM CDT SAT OCT 21 2017

WIZ005-009-010>012-018-019-210800-
NORTH CENTRAL WISCONSIN

CITY           SKY/WX    TMP DP  RH WIND       PRES   REMARKS
IRONWOOD       CLOUDY    65  44  46 S14G25    29.81S
MANITOWISH WTR NOT AVBL
ARBOR VITAE    NOT AVBL
EAGLE RIVER    NOT AVBL
LAND O LAKES   NOT AVBL
RHINELANDER    PTCLDY    63  45  51 S13G21    29.90S
PHILLIPS       CLOUDY    62  44  52 S10G16    29.85S
ANTIGO         NOT AVBL
TOMAHAWK       CLOUDY    58  45  62 CALM      29.90S
MERRILL        CLOUDY    62  46  55 S5        29.91S
$$

WIZ013-073-210800-
NORTHEAST WISCONSIN

CITY           SKY/WX    TMP DP  RH WIND       PRES   REMARKS
IRON MOUNTAIN  CLOUDY    58  46  64 SE6       29.91F
MARINETTE      CLOUDY    63  50  62 SW12      29.96R
$$

WIZ017-030-035>037-045-210800-
CENTRAL WISCONSIN

CITY           SKY/WX    TMP DP  RH WIND       PRES   REMARKS
MEDFORD        NOT AVBL
WAUSAU         CLOUDY    62  45  53 S8        29.90S
MOSINEE        PTCLDY    59  45  58 S8        29.93R
MARSHFIELD     CLOUDY    63  44  50 S12       29.89S
WISC RAPIDS    CLOUDY    65  45  48 S12       29.93R
STEVENS POINT  NOT AVBL
WAUPACA        NOT AVBL
SHAWANO        CLOUDY    65  47  51 S7        29.94S
CLINTONVILLE   NOT AVBL
WAUTOMA        CLOUDY    65  46  50 S10       29.95R
$$

WIZ038-039-048-051-210800-
FOX VALLEY

CITY           SKY/WX    TMP DP  RH WIND       PRES   REMARKS
NWS GREEN BAY  CLOUDY    65  48  54 S10       29.96F
APPLETON       NOT AVBL
OSHKOSH        MOCLDY    61  48  62 S12       29.96S
FOND DU LAC    CLOUDY    65  44  46 S10G20    29.97F
$$

WIZ022-050-052-210800-
EAST CENTRAL WISCONSIN

CITY           SKY/WX    TMP DP  RH WIND       PRES   REMARKS
EPHRAIM        FAIR      59  49  70 S8        29.97R
WASHINGTON ISL FAIR      56  53  88 S12       29.97S
STURGEON BAY   MOCLDY    59  50  72 S10       29.98R
MANITOWOC      CLOUDY    53  50  89 CALM      30.00S
SHEBOYGAN      CLOUDY    62  49  62 S10       30.00R
$$

LMZ563-521-522-541>543-210800-
LAKESHORE

STATION/POSITION TIME  TEMP    WIND        PRES    VSBY  WAVE
                       AIR SEA DIR/SP/G                  HT/PER
                 (UTC) (F)     (DEG/KT/KT) (MB)    (MI)  (FT/S)
SHEBOYGAN LKSHOR 0600   58     180/ 15/ 16 1015.4S
KEWAUNEE LKSHORE 0630   54     180/  7/  8 1014.6R
NORTHPORT PIER   0640   59     150/  5/ 11 1014.6S
N MID LAKE BUOY  0550   62 58  190/ 19/ 21 1015.4R         4/ 6
S GREEN BAY BUOY 0630   62 58  180/ 14/ 16 1014.1R
MENOMINEE LKSHOR 0630   63     180/ 10/ 15 1014.0R
$$



USA.gov is the U.S. government's official web portal to all federal, state and local government web resources and services.